Regional Weather Roundup
Issued by NWS

Home | Current Version | Previous Version | Graphics & Text | Print | Product List | Glossary On
Versions: 1 2 3 4 5 6 7 8 9 10 11 12 13 14 15 16 17 18 19 20 21 22 23 24 25 26 27 28 29 30 31 32 33 34 35 36 37 38 39 40 41 42 43 44 45 46 47 48 49 50
133
ASUS43 KFSD 292210
RWRSD

WEATHER ROUNDUP FOR SOUTH DAKOTA
NATIONAL WEATHER SERVICE SIOUX FALLS SD
500 PM CDT THU SEP 29 2016

NOTE: "FAIR" INDICATES FEW OR NO CLOUDS BELOW 12,000 FEET WITH NO
SIGNIFICANT WEATHER AND/OR OBSTRUCTIONS TO VISIBILITY.


SDZ001>005-009-010-012>017-292300-
NORTHWEST AND NORTH CENTRAL SOUTH DAKOTA

CITY           SKY/WX    TMP DP  RH WIND       PRES   REMARKS
BUFFALO          N/A     81  45  28 SE24      30.08F
FAITH            N/A     77  42  28 SE20G29   30.19F
MOBRIDGE       SUNNY     74  39  28 SE20      30.25F
$$

SDZ012>016-024>037-041>051-057-063-072>074-292300-
SOUTHWEST AND SOUTH CENTRAL SOUTH DAKOTA

CITY           SKY/WX    TMP DP  RH WIND       PRES   REMARKS
RAPID CTY ARPT SUNNY     81  44  27 S14       30.18F
PIERRE         SUNNY     73  40  30 SE18G24   30.25F
CUSTER         SUNNY     71  41  33 S9        30.30F
ELLSWORTH AFB  SUNNY     82  45  27 S22       30.17F
PHILIP         SUNNY     80  42  25 SE16G23   30.19F
PINE RIDGE     SUNNY     80  42  25 SE16      30.22S
WINNER         FAIR      74  44  34 SE17      30.29F
$$

SDZ004>011-016>023-039-040-292300-
NORTHEAST SOUTH DAKOTA

CITY           SKY/WX    TMP DP  RH WIND       PRES   REMARKS
ABERDEEN       SUNNY     69  45  41 SE8       30.34F
WATERTOWN      SUNNY     65  47  52 E8        30.37F
BROOKINGS      SUNNY     66  47  50 E9        30.37F
SISSETON         N/A     68  45  43 S8        30.37F
$$

SDZ017-020-022-023-036>040-048>070-292300-
SOUTHEAST SOUTH DAKOTA

CITY           SKY/WX    TMP DP  RH WIND       PRES   REMARKS
SIOUX FALLS    SUNNY     69  48  47 VRB7      30.36F
HURON          SUNNY     69  46  43 SE12      30.33F
CHAMBERLAIN    SUNNY     71  47  42 SE15G21   30.31F
MITCHELL       SUNNY     70  46  42 SE7       30.35F
YANKTON        SUNNY     66  48  52 SE9       30.33F
$$

ABBREVIATIONS USED IN REMARKS
   TC - TEMPERATURE IN CELSIUS
  WCI - WIND CHILL INDEX
   HX - HEAT INDEX
  VSB - VISIBILITY





USA.gov is the U.S. government's official web portal to all federal, state and local government web resources and services.